Time,TemperatureF,DewpointF,PressureIn,WindDirection,WindDirectionDegrees,WindSpeedMPH,WindSpeedGustMPH,Humidity,HourlyPrecipIn,Conditions,Clouds,dailyrainin,SoftwareType,DateUTC
2013-07-31 00:22:00,70.0,66.0,30.04,NNW,338,0.0,0.0,87,0.00,,,0.87,,2013-07-31 05:22:00,
2013-07-31 00:32:00,70.0,66.0,30.04,NNW,338,0.0,0.0,87,0.00,,,0.87,,2013-07-31 05:32:00,
2013-07-31 00:42:00,70.0,66.0,30.04,NNW,338,0.0,0.0,87,0.00,,,0.87,,2013-07-31 05:42:00,
2013-07-31 00:52:00,70.0,66.0,30.04,NNW,338,0.0,0.0,87,0.00,,,0.87,,2013-07-31 05:52:00,
2013-07-31 01:10:00,70.0,66.0,30.04,South,180,0.0,0.0,88,0.00,,,0.87,,2013-07-31 06:10:00,
2013-07-31 01:32:00,70.0,66.0,30.04,South,180,0.0,0.0,88,0.00,,,0.87,,2013-07-31 06:32:00,
2013-07-31 01:43:00,70.0,66.0,30.04,South,180,0.0,0.0,88,0.00,,,0.87,,2013-07-31 06:43:00,
2013-07-31 01:53:00,70.0,66.0,30.04,South,180,0.0,0.0,88,0.00,,,0.87,,2013-07-31 06:53:00,
2013-07-31 02:02:00,70.0,66.0,30.04,South,180,0.0,0.0,88,0.00,,,0.87,,2013-07-31 07:02:00,
2013-07-31 02:32:00,69.0,65.0,30.03,WSW,248,0.0,0.0,88,0.00,,,0.87,,2013-07-31 07:32:00,
2013-07-31 02:43:00,69.0,65.0,30.03,WSW,248,0.0,0.0,88,0.00,,,0.87,,2013-07-31 07:43:00,
2013-07-31 03:02:00,69.0,65.0,30.03,WSW,248,0.0,0.0,88,0.00,,,0.87,,2013-07-31 08:02:00,
2013-07-31 03:10:00,69.0,66.0,30.04,WSW,248,0.0,0.0,89,0.00,,,0.87,,2013-07-31 08:10:00,
2013-07-31 03:12:00,69.0,65.0,30.03,WSW,248,0.0,0.0,88,0.00,,,0.87,,2013-07-31 08:12:00,
2013-07-31 03:32:00,69.0,66.0,30.04,WSW,248,0.0,0.0,89,0.00,,,0.87,,2013-07-31 08:32:00,
2013-07-31 03:42:00,69.0,66.0,30.04,WSW,248,0.0,0.0,89,0.00,,,0.87,,2013-07-31 08:42:00,
2013-07-31 03:53:00,69.0,66.0,30.04,WSW,248,0.0,0.0,89,0.00,,,0.87,,2013-07-31 08:53:00,
2013-07-31 04:02:00,69.0,66.0,30.04,WSW,248,0.0,0.0,89,0.00,,,0.87,,2013-07-31 09:02:00,
2013-07-31 05:10:00,68.0,65.0,30.04,ENE,68,0.0,0.0,90,0.00,,,0.85,,2013-07-31 10:10:00,
2013-07-31 05:32:00,68.0,65.0,30.04,ENE,68,0.0,0.0,90,0.00,,,0.85,,2013-07-31 10:32:00,
2013-07-31 05:44:00,68.0,65.0,30.04,ENE,68,0.0,0.0,90,0.00,,,0.85,,2013-07-31 10:44:00,
2013-07-31 05:52:00,68.0,65.0,30.04,ENE,68,0.0,0.0,90,0.00,,,0.85,,2013-07-31 10:52:00,
2013-07-31 06:03:00,68.0,65.0,30.04,ENE,68,0.0,0.0,90,0.00,,,0.85,,2013-07-31 11:03:00,
2013-07-31 06:33:00,68.0,65.0,30.05,NE,45,0.0,0.0,90,0.00,,,0.04,,2013-07-31 11:33:00,
2013-07-31 06:43:00,68.0,65.0,30.05,NE,45,0.0,0.0,90,0.00,,,0.04,,2013-07-31 11:43:00,
2013-07-31 06:53:00,68.0,65.0,30.05,NE,45,0.0,0.0,90,0.00,,,0.04,,2013-07-31 11:53:00,
2013-07-31 07:02:00,68.0,65.0,30.07,NE,45,0.0,0.0,91,0.00,,,0.02,,2013-07-31 12:02:00,
2013-07-31 07:12:00,68.0,65.0,30.07,NE,45,0.0,0.0,91,0.00,,,0.02,,2013-07-31 12:12:00,
2013-07-31 07:33:00,68.0,65.0,30.07,NE,45,0.0,0.0,91,0.00,,,0.02,,2013-07-31 12:33:00,
2013-07-31 07:43:00,68.0,65.0,30.07,NE,45,0.0,0.0,91,0.00,,,0.02,,2013-07-31 12:43:00,
2013-07-31 08:02:00,68.0,65.0,30.09,ENE,68,0.0,0.0,91,0.00,,,0.01,,2013-07-31 13:02:00,
2013-07-31 08:12:00,68.0,65.0,30.09,ENE,68,0.0,0.0,91,0.00,,,0.01,,2013-07-31 13:12:00,
2013-07-31 08:22:00,68.0,65.0,30.09,ENE,68,0.0,0.0,91,0.00,,,0.01,,2013-07-31 13:22:00,
2013-07-31 09:40:00,72.0,67.0,30.09,North,0,2.0,2.0,85,0.00,,,0.00,,2013-07-31 14:40:00,
2013-07-31 10:02:00,72.0,67.0,30.09,North,0,2.0,2.0,85,0.00,,,0.00,,2013-07-31 15:02:00,
2013-07-31 10:12:00,72.0,67.0,30.09,North,0,2.0,2.0,85,0.00,,,0.00,,2013-07-31 15:12:00,
2013-07-31 10:22:00,72.0,67.0,30.09,North,0,2.0,2.0,85,0.00,,,0.00,,2013-07-31 15:22:00,
2013-07-31 10:33:00,72.0,67.0,30.09,North,0,2.0,2.0,85,0.00,,,0.00,,2013-07-31 15:33:00,
2013-07-31 11:10:00,77.0,68.0,30.10,SSE,158,2.0,2.0,73,0.00,,,0.00,,2013-07-31 16:10:00,
2013-07-31 11:33:00,77.0,68.0,30.10,SSE,158,2.0,2.0,73,0.00,,,0.00,,2013-07-31 16:33:00,
2013-07-31 11:44:00,77.0,68.0,30.10,SSE,158,2.0,2.0,73,0.00,,,0.00,,2013-07-31 16:44:00,
2013-07-31 11:52:00,77.0,68.0,30.10,SSE,158,2.0,2.0,73,0.00,,,0.00,,2013-07-31 16:52:00,
2013-07-31 12:02:00,77.0,68.0,30.10,SSE,158,2.0,2.0,73,0.00,,,0.00,,2013-07-31 17:02:00,
2013-07-31 12:33:00,79.0,67.0,30.10,NNW,338,3.0,3.0,66,0.00,,,0.00,,2013-07-31 17:33:00,
2013-07-31 12:43:00,79.0,67.0,30.10,NNW,338,3.0,3.0,66,0.00,,,0.00,,2013-07-31 17:43:00,
2013-07-31 12:53:00,79.0,67.0,30.10,NNW,338,3.0,3.0,66,0.00,,,0.00,,2013-07-31 17:53:00,
2013-07-31 13:02:00,79.0,67.0,30.09,NNE,23,4.0,4.0,66,0.00,,,0.00,,2013-07-31 18:02:00,
2013-07-31 13:10:00,80.0,67.0,30.08,ESE,113,2.0,2.0,65,0.00,,,0.00,,2013-07-31 18:10:00,
2013-07-31 13:12:00,79.0,67.0,30.09,NNE,23,4.0,4.0,66,0.00,,,0.00,,2013-07-31 18:12:00,
2013-07-31 13:32:00,80.0,67.0,30.08,ESE,113,2.0,2.0,65,0.00,,,0.00,,2013-07-31 18:32:00,
2013-07-31 13:43:00,80.0,67.0,30.08,ESE,113,2.0,2.0,65,0.00,,,0.00,,2013-07-31 18:43:00,
2013-07-31 13:52:00,80.0,67.0,30.08,ESE,113,2.0,2.0,65,0.00,,,0.00,,2013-07-31 18:52:00,
2013-07-31 14:03:00,80.0,67.0,30.08,ESE,113,2.0,2.0,65,0.00,,,0.00,,2013-07-31 19:03:00,
2013-07-31 15:03:00,83.0,67.0,30.07,NE,45,0.0,0.0,58,0.00,,,0.00,,2013-07-31 20:03:00,
2013-07-31 15:10:00,83.0,67.0,30.07,East,90,3.0,3.0,58,0.00,,,0.00,,2013-07-31 20:10:00,
2013-07-31 15:12:00,83.0,67.0,30.07,NE,45,0.0,0.0,58,0.00,,,0.00,,2013-07-31 20:12:00,
2013-07-31 15:22:00,83.0,67.0,30.07,NE,45,0.0,0.0,58,0.00,,,0.00,,2013-07-31 20:22:00,
2013-07-31 15:32:00,83.0,67.0,30.07,East,90,3.0,3.0,58,0.00,,,0.00,,2013-07-31 20:32:00,
2013-07-31 15:43:00,83.0,67.0,30.07,East,90,3.0,3.0,58,0.00,,,0.00,,2013-07-31 20:43:00,
2013-07-31 15:53:00,83.0,67.0,30.07,East,90,3.0,3.0,58,0.00,,,0.00,,2013-07-31 20:53:00,
2013-07-31 16:02:00,83.0,67.0,30.07,East,90,3.0,3.0,58,0.00,,,0.00,,2013-07-31 21:02:00,
2013-07-31 16:40:00,86.0,67.0,30.05,NE,45,5.0,5.0,54,0.00,,,0.00,,2013-07-31 21:40:00,
2013-07-31 17:02:00,86.0,67.0,30.05,NE,45,5.0,5.0,54,0.00,,,0.00,,2013-07-31 22:02:00,
2013-07-31 17:13:00,86.0,67.0,30.05,NE,45,5.0,5.0,54,0.00,,,0.00,,2013-07-31 22:13:00,
2013-07-31 17:22:00,86.0,67.0,30.05,NE,45,5.0,5.0,54,0.00,,,0.00,,2013-07-31 22:22:00,
2013-07-31 17:33:00,86.0,67.0,30.05,NE,45,5.0,5.0,54,0.00,,,0.00,,2013-07-31 22:33:00,
2013-07-31 18:32:00,88.0,68.0,30.02,NW,315,1.0,1.0,51,0.00,,,0.00,,2013-07-31 23:32:00,
2013-07-31 18:40:00,89.0,68.0,30.02,SSW,203,1.0,1.0,50,0.01,,,0.01,,2013-07-31 23:40:00,
2013-07-31 18:42:00,88.0,68.0,30.02,NW,315,1.0,1.0,51,0.00,,,0.00,,2013-07-31 23:42:00,
2013-07-31 19:02:00,89.0,68.0,30.02,SSW,203,1.0,1.0,50,0.01,,,0.01,,2013-08-01 00:02:00,
2013-07-31 19:12:00,89.0,68.0,30.02,SSW,203,1.0,1.0,50,0.01,,,0.01,,2013-08-01 00:12:00,
2013-07-31 19:22:00,89.0,68.0,30.02,SSW,203,1.0,1.0,50,0.01,,,0.01,,2013-08-01 00:22:00,
2013-07-31 19:32:00,89.0,68.0,30.02,SSW,203,1.0,1.0,50,0.01,,,0.01,,2013-08-01 00:32:00,
2013-07-31 21:40:00,72.0,62.0,30.05,SW,225,0.0,0.0,72,0.00,,,0.01,,2013-08-01 02:40:00,
2013-07-31 22:02:00,72.0,62.0,30.05,SW,225,0.0,0.0,72,0.00,,,0.01,,2013-08-01 03:02:00,
2013-07-31 22:12:00,72.0,62.0,30.05,SW,225,0.0,0.0,72,0.00,,,0.01,,2013-08-01 03:12:00,
2013-07-31 22:22:00,72.0,62.0,30.05,SW,225,0.0,0.0,72,0.00,,,0.01,,2013-08-01 03:22:00,
2013-07-31 22:32:00,72.0,62.0,30.05,SW,225,0.0,0.0,72,0.00,,,0.01,,2013-08-01 03:32:00,
2013-07-31 23:03:00,69.0,61.0,30.06,South,180,0.0,0.0,76,0.00,,,0.01,,2013-08-01 04:03:00,
2013-07-31 23:10:00,68.0,61.0,30.06,SW,225,0.0,0.0,78,0.00,,,0.01,,2013-08-01 04:10:00,
2013-07-31 23:12:00,69.0,61.0,30.06,South,180,0.0,0.0,76,0.00,,,0.01,,2013-08-01 04:12:00,
2013-07-31 23:33:00,68.0,61.0,30.06,SW,225,0.0,0.0,78,0.00,,,0.01,,2013-08-01 04:33:00,
2013-07-31 23:43:00,68.0,61.0,30.06,SW,225,0.0,0.0,78,0.00,,,0.01,,2013-08-01 04:43:00,
2013-07-31 23:53:00,68.0,61.0,30.06,SW,225,0.0,0.0,78,0.00,,,0.01,,2013-08-01 04:53:00,